This is the latest recevied weather packets stored in our database for station/object WA0GMH-1. If no packets are shown the sender has not sent any weather packets the latest 10 day(s).
| Time | Temp. | Humidity | Pressure | Rain* | Wind** | Luminosity | Snow |
|---|---|---|---|---|---|---|---|
| 1777938015 | 14.44° C | 77% | 1008.7 hPa | 0 mm | - | - | - |
| 1777937613 | 14.44° C | 76% | 1008.7 hPa | 0 mm | - | - | - |
| 1777937211 | 14.44° C | 76% | 1008.6 hPa | 0 mm | - | - | - |
| 1777936808 | 14.44° C | 77% | 1008.6 hPa | 0 mm | - | - | - |
| 1777936406 | 14.44° C | 77% | 1008.4 hPa | 0 mm | - | - | - |
| 1777936004 | 14.44° C | 77% | 1008.2 hPa | 0 mm | - | - | - |
| 1777935602 | 14.44° C | 77% | 1008.3 hPa | 0 mm | - | - | - |
| 1777935199 | 14.44° C | 76% | 1008.2 hPa | 0 mm | - | - | - |
| 1777934797 | 14.44° C | 76% | 1008 hPa | 0 mm | - | - | - |
| 1777934395 | 14.44° C | 76% | 1008 hPa | 0 mm | - | - | - |
| 1777933993 | 14.44° C | 78% | 1008 hPa | 0 mm | - | - | - |
| 1777933590 | 13.89° C | 77% | 1008 hPa | 0 mm | - | - | - |
| 1777933188 | 14.44° C | 77% | 1007.8 hPa | 0 mm | - | - | - |
| 1777932786 | 14.44° C | 79% | 1007.8 hPa | 0 mm | - | - | - |
| 1777932384 | 14.44° C | 78% | 1007.8 hPa | 0 mm | - | - | - |
| 1777931981 | 14.44° C | 77% | 1007.8 hPa | 0 mm | - | - | - |
| 1777931579 | 14.44° C | 78% | 1008 hPa | 0 mm | - | - | - |
| 1777931177 | 14.44° C | 77% | 1007.9 hPa | 0 mm | - | - | - |
| 1777930775 | 15° C | 78% | 1007.9 hPa | 0 mm | - | - | - |
| 1777930372 | 15° C | 76% | 1008 hPa | 0 mm | - | - | - |
| 1777929970 | 15.56° C | 77% | 1007.7 hPa | 0 mm | - | - | - |
| 1777929568 | 16.11° C | 75% | 1007.9 hPa | 0 mm | - | - | - |
| 1777929166 | 16.11° C | 77% | 1008 hPa | 0 mm | - | - | - |
| 1777928763 | 16.67° C | 76% | 1007.9 hPa | 0 mm | - | - | - |
| 1777928362 | 17.22° C | 78% | 1007.9 hPa | 0 mm | - | - | - |
* Rain since midnight (hover to see other rain measurements)
** Current wind speed in m/s (hover to see current wind gust speed)